Weather History for Sitka, AK

Change the Weather History Date:

Friday, August 29, 2014

  Actual Average Record
Temperature  
Mean Temperature 54 °F -  
Max Temperature 59 °F 62 °F 76 °F (1974)
Min Temperature 51 °F 51 °F 43 °F (1958)
Degree Days  
Heating Degree Days 11    
Growing Degree Days 4 (Base 50)    
Moisture  
Dew Point 50 °F    
Average Humidity 83    
Maximum Humidity 100    
Minimum Humidity 67    
Precipitation  
Precipitation 0.41 in - - ()
Sea Level Pressure  
Sea Level Pressure 29.52 in    
Wind  
Wind Speed 10 mph (ESE)    
Max Wind Speed 14 mph    
Max Gust Speed 21 mph    
Visibility 10 miles    
Events Rain    
Averages and records for this station are not official NWS values.
T = Trace of Precipitation, MM = Missing Value Source: NWS Daily Summary

Daily Weather History Graph

Daily Weather History Graph

Search for Another Location

Airport:

Trip Planner

Search our weather history database for the weather conditions in past years. The results will help you decide how hot, cold, wet, or windy it might be!

Date:

Astronomy

Aug. 29, 2014 Rise Set
Actual Time 5:57 AM AKDT 8:05 PM AKDT
Civil Twilight 5:16 AM AKDT 8:46 PM AKDT
Nautical Twilight 4:23 AM AKDT 9:38 PM AKDT
Astronomical Twilight 3:18 AM AKDT 10:42 PM AKDT
Moon 10:49 AM AKDT (8/29) 9:09 PM AKDT (8/29)
Length of Visible Light 15h 30m
Length of Day
14h 07m
Waxing Crescent, 16% of the Moon is Illuminated
Aug 29
Waxing Crescent
Sep 2
First Quarter
Sep 8
Full
Sep 15
Last Quarter
Sep 23
New

Hourly Weather History & Observations

Time (AKDT) Temp. Dew Point Humidity Pressure Visibility Wind Dir Wind Speed Gust Speed Precip Events Conditions
12:53 AM 57.0 °F 46.0 °F 67% 29.65 in 10.0 mi ESE 11.5 mph - N/A   Overcast
1:53 AM 57.0 °F 46.9 °F 69% 29.62 in 10.0 mi ESE 11.5 mph - N/A   Overcast
2:53 AM 57.0 °F 46.9 °F 69% 29.60 in 10.0 mi ESE 11.5 mph - 0.00 in Rain Light Rain
3:53 AM 57.0 °F 46.0 °F 67% 29.58 in 10.0 mi East 10.4 mph 20.7 mph 0.00 in   Overcast
4:53 AM 55.0 °F 48.0 °F 77% 29.56 in 10.0 mi East 9.2 mph - 0.01 in Rain Light Rain
5:53 AM 55.9 °F 46.9 °F 72% 29.55 in 10.0 mi SE 13.8 mph - 0.00 in Rain Light Rain
6:53 AM 55.4 °F 46.4 °F 72% 29.53 in 10.0 mi ESE 10.4 mph - N/A Rain Light Rain
7:53 AM 53.1 °F 50.0 °F 89% 29.52 in 10.0 mi East 8.1 mph - 0.05 in Rain Light Rain
8:53 AM 55.0 °F 48.9 °F 80% 29.50 in 10.0 mi East 8.1 mph - 0.01 in   Overcast
9:53 AM 54.0 °F 50.0 °F 86% 29.49 in 5.0 mi ESE 10.4 mph - 0.05 in Rain Rain
10:53 AM 54.0 °F 50.0 °F 86% 29.48 in 10.0 mi ESE 11.5 mph 18.4 mph 0.05 in   Overcast
11:53 AM 55.9 °F 48.9 °F 77% 29.47 in 10.0 mi ESE 11.5 mph - 0.00 in   Overcast
12:53 PM 57.0 °F 48.9 °F 74% 29.47 in 10.0 mi SE 10.4 mph - N/A   Scattered Clouds
1:53 PM 57.9 °F 48.0 °F 70% 29.47 in 10.0 mi ESE 9.2 mph - 0.00 in   Overcast
2:53 PM 57.9 °F 48.9 °F 72% 29.47 in 10.0 mi ESE 12.7 mph - 0.00 in   Overcast
3:53 PM 55.0 °F 53.1 °F 93% 29.49 in 6.0 mi SSW 8.1 mph - 0.04 in Rain Rain
4:53 PM 54.0 °F 53.1 °F 97% 29.49 in 10.0 mi East 6.9 mph - 0.06 in   Overcast
5:53 PM 54.0 °F 52.0 °F 93% 29.49 in 10.0 mi ESE 8.1 mph - 0.04 in Rain Light Rain
6:53 PM 54.0 °F 53.1 °F 97% 29.50 in 10.0 mi East 4.6 mph - 0.02 in Rain Light Rain
7:53 PM 53.1 °F 52.0 °F 96% 29.50 in 10.0 mi Calm Calm - 0.04 in Rain Light Rain
8:53 PM 53.1 °F 52.0 °F 96% 29.51 in 10.0 mi ESE 5.8 mph - 0.04 in Rain Light Rain
9:53 PM 51.1 °F 51.1 °F 100% 29.52 in 10.0 mi ESE 5.8 mph - 0.00 in Rain Light Rain
10:53 PM 51.1 °F 51.1 °F 100% 29.53 in 10.0 mi East 4.6 mph - 0.00 in   Overcast
11:53 PM 51.1 °F 51.1 °F 100% 29.53 in 10.0 mi Calm Calm - N/A   Overcast